Regional Weather Roundup
Issued by NWS Jackson, KY

Home | Current Version | Previous Version | Graphics & Text | Print | Product List | Glossary On
Versions: 1 2 3 4 5 6 7 8 9 10 11 12 13 14 15 16 17 18 19 20 21 22 23 24 25 26 27
000
ASUS43 KJKL 231810
RWRJKL

EAST KENTUCKY HOURLY WEATHER ROUNDUP
NATIONAL WEATHER SERVICE JACKSON KY
200 PM EDT SUN JUL 23 2017

NOTE: "FAIR" INDICATES FEW OR NO CLOUDS BELOW 12,000 FEET WITH
NO SIGNIFICANT WEATHER AND/OR OBSTRUCTIONS TO VISIBILITY.

* THESE REPORTS ARE NOT UNDER NWS QUALITY CONTROL AND MAY NOT
  REPORT WEATHER SUCH AS PRECIPITATION AND FOG.

KYZ079-080-083-085-087-088-110-112-115-119-120-231900
...EASTERN KENTUCKY...

CITY           SKY/WX    TMP DP  RH WIND       PRES   REMARKS
JACKSON        CLOUDY    79  68  69 CALM      29.92F
6HR MIN TEMP:  68; 6HR MAX TEMP:  79;

LONDON         CLOUDY    83  64  52 VRB3      29.92F
6HR MIN TEMP:  75; 6HR MAX TEMP:  84;

SOMERSET*      PTSUNNY   82  63  51 CALM      29.92F
MONTICELLO*    CLOUDY    82  70  66 MISG      29.93F
6HR MIN TEMP:  73; 6HR MAX TEMP:  86; 6HR PCP: TRACE;

WILLIAMSBURG*  CLOUDY    84  68  58 NE5       29.92F
MIDDLESBORO*   PTSUNNY   89  71  55 NE7       29.92F HX  94
6HR MIN TEMP:  74; 6HR MAX TEMP:  90;

HARLAN APT*    CLOUDY    84  64  51 W3        29.94F
PIKE CO APT*     N/A     78  71  79 CALM      29.94F
BIG SANDY APT* CLOUDY    80  69  69 W5        29.91F
6HR MIN TEMP:  69; 6HR MAX TEMP:  80;

MOREHEAD APT*  MOCLDY    77  66  69 CALM      29.90R
ASHLAND*         N/A    N/A N/A N/A MISG        N/A
$$

KYZ035-036-041-042-044-050-067-078-099-231900
...CENTRAL KENTUCKY...

CITY           SKY/WX    TMP DP  RH WIND       PRES   REMARKS
MT STERLING*   CLOUDY    77  70  78 SW5       29.90F
FLEMING/MASON* CLOUDY    77  70  79 S7        29.84F
DANVILLE*      CLOUDY    79  68  69 W6        29.92S
LEXINGTON      PTSUNNY   78  71  79 S12       29.87F
6HR MIN TEMP:  71; 6HR MAX TEMP:  78; 6HR PCP:  0.15;

FRANKFORT      CLOUDY    80  70  71 SW12      29.83F
6HR MIN TEMP:  71; 6HR MAX TEMP:  81; 6HR PCP:  0.26;

LOUISVILLE     CLOUDY    81  73  76 S8        29.82F
6HR MIN TEMP:  73; 6HR MAX TEMP:  81; 6HR PCP:  0.35;

LEBANON*         N/A     79  68  69 S7        29.90F
GLASGOW*       PTSUNNY   85  69  57 SE3       29.89F
BOWLING GREEN  CLOUDY    85  69  58 E5        29.89F
6HR MIN TEMP:  76; 6HR MAX TEMP:  86;

$$

KYZ091>093-OHZ055-061-077-WVZ005-015-034-035-042-231900
...SOUTHERN OHIO/WEST VIRGINIA...

CITY           SKY/WX    TMP DP  RH WIND       PRES   REMARKS
COVINGTON      CLOUDY    77  73  87 VRB6G18   29.81R
COLUMBUS       CLOUDY    77  74  90 NW8       29.81F
DAYTON         CLOUDY    77  71  82 NW8       29.81S
WILMINGTON     PTSUNNY   76  73  91 N8        29.79F
HUNTINGTON     PTSUNNY   79  68  69 W5        29.87F
CHARLESTON     CLOUDY    82  68  62 SW7       29.90F
PINEVILLE*     PTSUNNY   82  69  64 MISG      30.01S
BECKLEY        MOSUNNY   80  64  58 W9G18     29.99F
BLUEFIELD      MOSUNNY   80  62  54 NW14G21   30.02S
LOGAN CO APT*    N/A     81  68  65 CALM      29.95F
$$

VAZ002-007-008-TNZ017-027-036-066-071-231900
...SOUTHWEST VIRGINIA/EAST TENNESSEE...

CITY           SKY/WX    TMP DP  RH WIND       PRES   REMARKS
WISE*          CLOUDY    81  63  54 NW10G16   30.03F
JONESVILLE*      N/A     88  68  51 NW3       29.95F HX  91
ABINGDON*      CLOUDY    87  71  58 W14       29.98F HX  92
BRISTOL        CLOUDY    85  72  65 VRB3      29.94F HX  91
MORRISTOWN*    CLEAR     88  73  62 VRB6      29.92F HX  96
SEVIERVILLE*   PTCLDY    90  72  55 W8        29.92S HX  96
KNOXVILLE      CLOUDY    87  71  58 SW8       29.92F HX  93
LAFOLLETTE*    PTCLDY    90  75  62 S12       29.94F HX 100
OAK RIDGE      CLOUDY    89  69  51 CALM      29.93F HX  93
CROSSVILLE     CLOUDY    81  72  74 CALM      29.99S
NASHVILLE      PTSUNNY   91  75  59 VRB5      29.88F HX 101
$$

...KEY TO REMARKS...
VSB - VISIBILITY IN MILES
WCI - WIND CHILL INDEX
HX  - HEAT INDEX

$$




USA.gov is the U.S. government's official web portal to all federal, state and local government web resources and services.